[[{"header":{"parameterUnit":"m.s-1","parameterCategory":1,"la1":30.2991,"la2":30.254,"lo1":-89.0895,"lo2":-89.0444,"dy":0.0017,"dx":0.0017,"nx":28,"ny":28,"refTime":"2023-03-13T21:00:00:Z","depth":0,"parameterNumber":2,"parameterNumberName":"U-component_of_WINDS"},"data":[0,0,0,0,0,0,0,0,0,0,0,0,0,0,0,0,0,0,0,0,0,0,0,0,0,0,0,0,0,0,0,0,0,0,0,0,0,0,0,0,0,0,0,0,0,0,0,0,0,0,0,0,0,0,0,0,0,0,-1.7012,-1.7011,0,-1.6912,-1.6911,-1.691,-1.6781,-1.6779,-1.6777,-1.6775,-1.6675,-1.6675,-1.6674,0,0,0,0,0,0,0,0,0,0,0,0,0,-1.7094,-1.7093,-1.7012,-1.7011,-1.7009,-1.6912,-1.6911,-1.691,-1.6781,-1.6779,-1.6776,-1.6774,-1.6676,-1.6675,-1.6674,0,0,0,0,0,0,0,0,0,0,0,0,0,-1.7033,-1.7093,-1.7012,-1.6933,-1.6925,-1.6913,-1.6911,-1.6909,-1.6782,-1.6779,-1.6775,-1.6772,-1.6676,-1.6675,-1.6674,-1.6731,0,0,-1.6671,-1.667,0,0,0,0,0,0,0,0,-1.7037,-1.703,-1.6946,-1.6939,-1.693,-1.6856,-1.6903,-1.685,-1.6783,-1.6836,-1.6775,-1.6771,-1.6738,-1.6732,-1.672,-1.6727,-1.6722,-1.6671,-1.667,-1.667,-1.667,0,0,0,0,0,0,0,-1.7041,-1.7034,-1.6972,-1.6945,-1.6935,-1.6904,-1.6892,-1.6893,-1.6806,-1.6831,-1.6822,-1.6812,-1.6733,-1.6722,-1.6717,-1.6721,-1.6671,-1.667,-1.6669,-1.6669,-1.6771,-1.6774,0,0,0,0,0,0,-1.7056,-1.7038,-1.6976,-1.6969,-1.6976,-1.6905,-1.6892,-1.6883,-1.6806,-1.6791,-1.6814,-1.6806,-1.6725,-1.6718,-1.6713,-1.6776,-1.667,-1.6669,-1.6668,-1.6768,-1.6772,-1.6776,0,0,0,0,0,0,-1.7059,-1.7052,-1.698,-1.7001,-1.6989,-1.6907,-1.6898,-1.6882,-1.6871,-1.6793,-1.6777,-1.6818,-1.6722,-1.6714,-1.6728,-1.6771,-1.6668,-1.6667,-1.6764,-1.6769,-1.6774,-1.6903,0,0,0,0,0,0,-1.7062,-1.7054,-1.7074,-1.7002,-1.6989,-1.6996,-1.6901,-1.6883,-1.6869,-1.6857,-1.6793,-1.6779,-1.6719,-1.673,-1.6727,-1.6768,-1.6667,-1.676,-1.6766,-1.6772,-1.6895,-1.6912,-1.6927,0,0,0,0,0,-1.7065,-1.7114,-1.7075,-1.7069,-1.7012,-1.6998,-1.699,-1.692,-1.6873,-1.6893,-1.6844,-1.6781,-1.6767,-1.6733,-1.6728,-1.6769,-1.6757,-1.6765,-1.6772,-1.6888,-1.6909,-1.6926,0,0,0,0,0,0,-1.7193,-1.7103,-1.7059,-1.7087,-1.7051,-1.6976,-1.6999,-1.6944,-1.6922,-1.6911,-1.6825,-1.6812,-1.6837,-1.6804,-1.6767,-1.6822,-1.6753,-1.676,-1.6842,-1.6862,-1.6877,-1.6885,-1.6666,0,0,0,0,0,-1.7225,-1.722,-1.7142,-1.7174,-1.7158,-1.7083,-1.7074,-1.7022,-1.6982,-1.6967,-1.6918,-1.6883,-1.687,-1.6864,-1.6848,-1.6889,-1.6874,-1.6915,-1.6931,-1.6945,-1.6952,-1.6974,-1.6992,-1.68,-1.68,-1.68,0,0,-1.729,-1.724,-1.7242,-1.7198,-1.7165,-1.7163,-1.7071,-1.7072,-1.7071,-1.6967,-1.6977,-1.6941,-1.6895,-1.6924,-1.6934,-1.6897,-1.7002,-1.6954,-1.6966,-1.6966,-1.6984,-1.7002,-1.7018,-1.6805,-1.6804,-1.6804,0,0,-1.7407,-1.7369,-1.7392,-1.736,-1.731,-1.726,-1.7266,-1.7199,-1.7171,-1.718,-1.7102,-1.71,-1.708,-1.7051,-1.7034,-1.7143,-1.7086,-1.7141,-1.7225,-1.7247,-1.7262,-1.7275,-1.7316,-1.7331,-1.7148,-1.7148,-1.7148,0,-1.7495,-1.7488,-1.7411,-1.7418,-1.7402,-1.7307,-1.7331,-1.7304,-1.7253,-1.7244,-1.7204,-1.7178,-1.714,-1.7162,-1.7189,-1.7177,-1.7183,-1.7148,-1.7266,-1.7278,-1.7289,-1.7327,-1.7343,-1.7155,-1.7155,-1.7154,-1.7153,0,-1.7599,-1.7597,-1.7621,-1.7573,-1.756,-1.7575,-1.7502,-1.7497,-1.7448,-1.7402,-1.7413,-1.7365,-1.7339,-1.734,-1.7291,-1.7355,-1.7334,-1.7281,-1.721,-1.7316,-1.735,-1.7364,-1.7166,-1.7163,-1.7161,-1.7159,0,0,-1.7795,-1.7705,-1.7715,-1.7693,-1.7632,-1.7629,-1.7641,-1.7615,-1.7614,-1.7581,-1.7591,-1.7577,-1.7527,-1.7508,-1.7456,-1.7475,-1.7567,-1.7419,-1.7417,-1.745,-1.7637,-1.7679,-1.7697,-1.7528,-1.753,-1.7532,-1.7641,0,-1.7903,-1.7918,-1.7849,-1.7882,-1.788,-1.7791,-1.7801,-1.7766,-1.7724,-1.7717,-1.7671,-1.7663,-1.7597,-1.7586,-1.76,-1.7553,-1.7604,-1.7544,-1.7538,-1.7539,-1.7554,-1.7714,-1.7758,-1.7863,-1.7654,-1.7656,-1.7658,0,-1.803,-1.8005,-1.8038,-1.7977,-1.7973,-1.7984,-1.7955,-1.7949,-1.7908,-1.7876,-1.7856,-1.7795,-1.7804,-1.7736,-1.7749,-1.771,-1.7703,-1.768,-1.7682,-1.768,-1.7606,-1.7719,-1.7895,-1.7912,-1.7678,-1.7676,-1.7675,0,-1.8172,-1.8146,-1.8163,-1.8147,-1.8075,-1.8085,-1.8056,-1.8011,-1.8001,-1.7976,-1.7968,-1.7946,-1.7934,-1.7918,-1.7854,-1.781,-1.7875,-1.7801,-1.7851,-1.7853,-1.787,-1.787,-1.8049,-1.7863,-1.7863,-1.7863,-1.7862,0,-1.8301,-1.8325,-1.8226,-1.8237,-1.8262,-1.8184,-1.8211,-1.8173,-1.8135,-1.8138,-1.8059,-1.8064,-1.7978,-1.7974,-1.7924,-1.7943,-1.7938,-1.7914,-1.7901,-1.7922,-1.7925,-1.7918,-1.7909,-1.7867,-1.7866,-1.7865,-1.7864,0,-1.8464,-1.8398,-1.8411,-1.8343,-1.8326,-1.8348,-1.8289,-1.8298,-1.8251,-1.8256,-1.8252,-1.818,-1.8171,-1.8105,-1.8081,-1.8048,-1.8087,-1.8058,-1.8101,-1.8092,-1.8147,-1.8143,-1.8329,-1.835,-1.815,-1.8151,-1.8153,0,-1.8551,-1.8567,-1.8501,-1.8497,-1.8471,-1.8465,-1.8454,-1.8378,-1.837,-1.8325,-1.8339,-1.8324,-1.8307,-1.8298,-1.8244,-1.8226,-1.8198,-1.8264,-1.8194,-1.8216,-1.8201,-1.8202,-1.8204,-1.8279,-1.8282,-1.8284,-1.8286,0,-1.8713,-1.868,-1.8666,-1.8642,-1.8631,-1.8608,-1.858,-1.8582,-1.8498,-1.8493,-1.8483,-1.847,-1.8446,-1.8433,-1.8406,-1.8377,-1.8319,-1.8308,-1.8319,-1.8341,-1.8366,-1.8356,-1.8143,-1.8304,-1.8302,-1.8301,-1.83,-1.8299,-1.8841,-1.8853,-1.8808,-1.8796,-1.8767,-1.8744,-1.8749,-1.8703,-1.8693,-1.8667,-1.8622,-1.862,-1.8579,-1.8537,-1.8513,-1.8511,-1.8476,-1.8491,-1.8496,-1.8501,-1.8513,-1.8366,-1.8505,-1.8505,-1.8504,-1.8504,-1.8503,0,-1.9001,-1.8968,-1.8957,-1.8922,-1.8913,-1.8857,-1.8824,-1.8821,-1.8819,-1.8786,-1.8772,-1.8762,-1.8749,-1.8694,-1.8676,-1.8685,-1.8658,-1.8683,-1.8682,-1.8677,-1.8544,-1.8538,-1.8705,-1.8705,-1.8705,-1.8705,-1.8705,-1.8705,-1.9083,-1.91,-1.9062,-1.9065,-1.9032,-1.9028,-1.9014,-1.8993,-1.8967,-1.8958,-1.8947,-1.8911,-1.887,-1.8848,-1.8835,-1.8819,-1.8817,-1.8852,-1.8828,-1.8705,-1.8686,-1.8667,-1.8661,-1.8851,-1.8852,-1.8961,-1.8962,-1.8962]},{"header":{"parameterUnit":"m.s-1","parameterCategory":1,"la1":30.2991,"la2":30.254,"lo1":-89.0895,"lo2":-89.0444,"dy":0.0017,"dx":0.0017,"nx":28,"ny":28,"refTime":"2023-03-13T21:00:00:Z","depth":0,"parameterNumber":3,"parameterNumberName":"V-component_of_WINDS"},"data":[0,0,0,0,0,0,0,0,0,0,0,0,0,0,0,0,0,0,0,0,0,0,0,0,0,0,0,0,0,0,0,0,0,0,0,0,0,0,0,0,0,0,0,0,0,0,0,0,0,0,0,0,0,0,0,0,0,0,1.2246,1.2246,0,1.2182,1.2181,1.218,1.2177,1.2177,1.2178,1.2179,1.2107,1.2105,1.2102,0,0,0,0,0,0,0,0,0,0,0,0,0,1.2363,1.2361,1.2246,1.2246,1.2245,1.2182,1.2181,1.218,1.2176,1.2177,1.2178,1.2179,1.2108,1.2105,1.2102,0,0,0,0,0,0,0,0,0,0,0,0,0,1.2307,1.236,1.2247,1.2236,1.2234,1.2182,1.2181,1.218,1.2176,1.2177,1.2178,1.218,1.2109,1.2105,1.2102,1.2055,0,0,1.209,1.2088,0,0,0,0,0,0,0,0,1.231,1.2302,1.2238,1.2236,1.2234,1.2188,1.2196,1.2138,1.2176,1.2198,1.2179,1.218,1.2133,1.2127,1.2112,1.2051,1.2048,1.2089,1.2087,1.2085,1.2084,0,0,0,0,0,0,0,1.2314,1.2305,1.2221,1.2237,1.2235,1.2233,1.2226,1.2185,1.216,1.2196,1.2196,1.2188,1.2132,1.2116,1.2111,1.2047,1.2089,1.2086,1.2084,1.2082,1.1944,1.1943,0,0,0,0,0,0,1.232,1.2308,1.2223,1.2219,1.2276,1.223,1.2222,1.2202,1.216,1.2155,1.2187,1.2188,1.2122,1.2115,1.2108,1.205,1.2085,1.2082,1.2079,1.1945,1.1944,1.1942,0,0,0,0,0,0,1.2323,1.2313,1.2225,1.2263,1.2252,1.2226,1.2204,1.22,1.2184,1.2154,1.2149,1.2176,1.2123,1.2114,1.2068,1.2047,1.208,1.2076,1.1947,1.1945,1.1943,1.1933,0,0,0,0,0,0,1.2326,1.2314,1.2296,1.2263,1.225,1.2187,1.2203,1.2198,1.2178,1.2179,1.2142,1.2136,1.2123,1.2074,1.2064,1.2042,1.2073,1.1949,1.1946,1.1944,1.1935,1.1931,1.1928,0,0,0,0,0,1.2331,1.2295,1.2296,1.2285,1.2228,1.2186,1.2179,1.2165,1.2176,1.2158,1.2139,1.2138,1.2052,1.207,1.2059,1.2035,1.195,1.1947,1.1944,1.1937,1.1932,1.1928,0,0,0,0,0,0,1.2324,1.229,1.2291,1.2244,1.2218,1.2186,1.2162,1.2161,1.213,1.2132,1.2115,1.2107,1.2062,1.2044,1.2065,1.1987,1.2002,1.1996,1.2,1.1995,1.1992,1.1996,1.207,0,0,0,0,0,1.2318,1.2288,1.226,1.2221,1.2209,1.2188,1.2169,1.2162,1.2134,1.2122,1.2099,1.2071,1.2038,1.2016,1.1984,1.1934,1.1925,1.1912,1.1908,1.1905,1.19,1.1872,1.1865,1.1933,1.1933,1.1933,0,0,1.2304,1.2282,1.2263,1.2219,1.2199,1.2167,1.2178,1.2144,1.212,1.2116,1.2072,1.2055,1.2022,1.1974,1.1952,1.1958,1.188,1.1902,1.1899,1.1896,1.1868,1.1862,1.1856,1.1931,1.1931,1.1931,0,0,1.2261,1.2242,1.2207,1.2187,1.2156,1.2143,1.2135,1.2103,1.2092,1.2048,1.2045,1.2015,1.1958,1.1935,1.1916,1.1867,1.1864,1.1857,1.1836,1.1808,1.1803,1.1798,1.1779,1.1772,1.1852,1.1852,1.1852,0,1.2246,1.2199,1.2189,1.2155,1.2136,1.2134,1.2098,1.2078,1.2038,1.2023,1.2032,1.1961,1.1939,1.1885,1.1873,1.1858,1.1847,1.1859,1.1805,1.18,1.1795,1.1777,1.177,1.1851,1.1851,1.1851,1.1851,0,1.2182,1.215,1.2126,1.2089,1.2067,1.2032,1.2015,1.1994,1.1989,1.1975,1.193,1.1904,1.1866,1.1853,1.1847,1.1798,1.1803,1.1809,1.1822,1.1788,1.177,1.1763,1.185,1.185,1.1851,1.1851,0,0,1.2131,1.2091,1.2082,1.2065,1.2032,1.2006,1.1971,1.1936,1.1918,1.1891,1.186,1.1813,1.1818,1.1796,1.1788,1.1764,1.1725,1.1772,1.1771,1.1763,1.1668,1.1663,1.1655,1.1725,1.1723,1.1722,1.1671,0,1.2083,1.2022,1.2013,1.1959,1.1928,1.1927,1.1897,1.1872,1.1859,1.183,1.1814,1.178,1.179,1.1777,1.1754,1.1735,1.1706,1.1739,1.1694,1.1692,1.17,1.1646,1.164,1.1593,1.1664,1.1663,1.1662,0,1.2018,1.1991,1.1935,1.1906,1.1893,1.1866,1.1833,1.1807,1.1779,1.1771,1.1748,1.1743,1.1705,1.1723,1.167,1.1693,1.1675,1.1663,1.1661,1.1654,1.1673,1.1636,1.1577,1.157,1.1651,1.1652,1.1653,0,1.1985,1.1934,1.1894,1.188,1.1846,1.1827,1.1812,1.1786,1.1765,1.1737,1.1723,1.169,1.1672,1.1646,1.1631,1.1646,1.1579,1.1596,1.157,1.157,1.1553,1.1554,1.1489,1.1545,1.1545,1.1546,1.1546,0,1.1931,1.1895,1.1878,1.1853,1.1813,1.1803,1.1764,1.1749,1.1727,1.1697,1.1695,1.1667,1.1651,1.1621,1.161,1.1567,1.1559,1.155,1.1547,1.1549,1.155,1.1535,1.1537,1.1544,1.1544,1.1544,1.1545,0,1.1885,1.1872,1.1828,1.1801,1.1793,1.1765,1.1741,1.1716,1.1703,1.1667,1.1657,1.1637,1.1602,1.1586,1.1542,1.1534,1.1485,1.1486,1.1495,1.1493,1.1467,1.1469,1.1387,1.1376,1.1442,1.1442,1.1441,0,1.185,1.1823,1.1794,1.1775,1.176,1.173,1.171,1.1699,1.1678,1.1646,1.1624,1.159,1.1561,1.1504,1.1484,1.145,1.1449,1.1423,1.1443,1.1446,1.1446,1.1447,1.1443,1.1418,1.1417,1.1417,1.1416,0,1.1789,1.1785,1.1756,1.1726,1.1703,1.1678,1.1654,1.1639,1.1624,1.1601,1.1566,1.1544,1.15,1.1465,1.143,1.1413,1.1411,1.1411,1.1402,1.1403,1.1408,1.1403,1.1482,1.1412,1.1412,1.1412,1.1413,1.1413,1.1746,1.1722,1.1698,1.1667,1.1648,1.1626,1.1601,1.1587,1.1558,1.1522,1.1518,1.148,1.1454,1.1407,1.1389,1.1359,1.1365,1.1353,1.135,1.1346,1.1344,1.1416,1.1353,1.1353,1.1353,1.1353,1.1353,0,1.1683,1.1668,1.164,1.1607,1.1583,1.1587,1.1561,1.1539,1.1506,1.1483,1.1456,1.1415,1.1381,1.136,1.1326,1.1305,1.1304,1.1296,1.1296,1.1292,1.1341,1.1351,1.1298,1.1298,1.1298,1.1298,1.1298,1.1298,1.1647,1.1607,1.16,1.155,1.1535,1.1499,1.1484,1.1463,1.1444,1.14,1.1373,1.136,1.1337,1.1301,1.127,1.1265,1.1251,1.1243,1.1238,1.1283,1.1289,1.1294,1.1303,1.1241,1.1241,1.1191,1.119,1.119]}]]